Time,TemperatureF,DewpointF,PressureIn,WindDirection,WindDirectionDegrees,WindSpeedMPH,WindSpeedGustMPH,Humidity,HourlyPrecipIn,Conditions,Clouds,dailyrainin,SolarRadiationWatts/m^2,SoftwareType,DateUTC
2013-08-17 00:00:00,55.0,54.0,-100.00,SE,135,0.0,-999.0,95,-99.99,,,-99.99,0.000000,,2013-08-17 04:00:00,
2013-08-17 00:44:00,55.0,54.0,-100.00,SE,135,0.0,-999.0,95,-99.99,,,-99.99,0.000000,,2013-08-17 04:44:00,
2013-08-17 00:53:00,55.0,54.0,-100.00,SE,135,0.0,-999.0,95,-99.99,,,-99.99,0.000000,,2013-08-17 04:53:00,
2013-08-17 01:00:00,55.0,54.0,-100.00,SE,135,1.0,-999.0,96,-99.99,,,-99.99,0.000000,,2013-08-17 05:00:00,
2013-08-17 01:42:00,55.0,54.0,-100.00,SE,135,1.0,-999.0,96,-99.99,,,-99.99,0.000000,,2013-08-17 05:42:00,
2013-08-17 01:52:00,55.0,54.0,-100.00,SE,135,1.0,-999.0,96,-99.99,,,-99.99,0.000000,,2013-08-17 05:52:00,
2013-08-17 03:00:00,56.0,54.0,-100.00,ESE,112,0.0,-999.0,93,-99.99,,,-99.99,0.000000,,2013-08-17 07:00:00,
2013-08-17 03:42:00,56.0,54.0,-100.00,ESE,112,0.0,-999.0,93,-99.99,,,-99.99,0.000000,,2013-08-17 07:42:00,
2013-08-17 03:52:00,56.0,54.0,-100.00,ESE,112,0.0,-999.0,93,-99.99,,,-99.99,0.000000,,2013-08-17 07:52:00,
2013-08-17 04:00:00,55.0,54.0,-100.00,ESE,112,1.0,-999.0,95,-99.99,,,-99.99,0.000000,,2013-08-17 08:00:00,
2013-08-17 04:42:00,55.0,54.0,-100.00,ESE,112,1.0,-999.0,95,-99.99,,,-99.99,0.000000,,2013-08-17 08:42:00,
2013-08-17 04:52:00,55.0,54.0,-100.00,ESE,112,1.0,-999.0,95,-99.99,,,-99.99,0.000000,,2013-08-17 08:52:00,
2013-08-17 05:00:00,56.0,54.0,-100.00,East,90,1.0,-999.0,94,-99.99,,,-99.99,0.000000,,2013-08-17 09:00:00,
2013-08-17 05:43:00,56.0,54.0,-100.00,East,90,1.0,-999.0,94,-99.99,,,-99.99,0.000000,,2013-08-17 09:43:00,
2013-08-17 05:53:00,56.0,54.0,-100.00,East,90,1.0,-999.0,94,-99.99,,,-99.99,0.000000,,2013-08-17 09:53:00,
2013-08-17 06:00:00,56.0,54.0,-100.00,ESE,112,1.0,-999.0,92,-99.99,,,-99.99,1.160000,,2013-08-17 10:00:00,
2013-08-17 06:42:00,56.0,54.0,-100.00,ESE,112,1.0,-999.0,92,-99.99,,,-99.99,1.160000,,2013-08-17 10:42:00,
2013-08-17 06:53:00,56.0,54.0,-100.00,ESE,112,1.0,-999.0,92,-99.99,,,-99.99,1.160000,,2013-08-17 10:53:00,
2013-08-17 07:00:00,55.0,54.0,-100.00,ESE,112,1.0,-999.0,94,-99.99,,,-99.99,1.160000,,2013-08-17 11:00:00,
2013-08-17 07:42:00,55.0,54.0,-100.00,ESE,112,1.0,-999.0,94,-99.99,,,-99.99,1.160000,,2013-08-17 11:42:00,
2013-08-17 07:52:00,55.0,54.0,-100.00,ESE,112,1.0,-999.0,94,-99.99,,,-99.99,1.160000,,2013-08-17 11:52:00,
2013-08-17 08:00:00,56.0,54.0,-100.00,ESE,112,1.0,-999.0,91,-99.99,,,-99.99,49.880001,,2013-08-17 12:00:00,
2013-08-17 08:42:00,56.0,54.0,-100.00,ESE,112,1.0,-999.0,91,-99.99,,,-99.99,49.880001,,2013-08-17 12:42:00,
2013-08-17 08:52:00,56.0,54.0,-100.00,ESE,112,1.0,-999.0,91,-99.99,,,-99.99,49.880001,,2013-08-17 12:52:00,
2013-08-17 09:00:00,61.0,56.0,-100.00,ESE,112,1.0,-999.0,82,-99.99,,,-99.99,201.839996,,2013-08-17 13:00:00,
2013-08-17 09:42:00,61.0,56.0,-100.00,ESE,112,1.0,-999.0,82,-99.99,,,-99.99,201.839996,,2013-08-17 13:42:00,
2013-08-17 09:52:00,61.0,56.0,-100.00,ESE,112,1.0,-999.0,82,-99.99,,,-99.99,201.839996,,2013-08-17 13:52:00,
2013-08-17 10:00:00,67.0,58.0,-100.00,East,90,2.0,-999.0,71,-99.99,,,-99.99,365.399994,,2013-08-17 14:00:00,
2013-08-17 10:42:00,67.0,58.0,-100.00,East,90,2.0,-999.0,71,-99.99,,,-99.99,365.399994,,2013-08-17 14:42:00,
2013-08-17 10:52:00,67.0,58.0,-100.00,East,90,2.0,-999.0,71,-99.99,,,-99.99,365.399994,,2013-08-17 14:52:00,
2013-08-17 11:00:00,72.0,58.0,-100.00,East,90,2.0,-999.0,61,-99.99,,,-99.99,516.200012,,2013-08-17 15:00:00,
2013-08-17 11:44:00,72.0,58.0,-100.00,East,90,2.0,-999.0,61,-99.99,,,-99.99,516.200012,,2013-08-17 15:44:00,
2013-08-17 11:54:00,72.0,58.0,-100.00,East,90,2.0,-999.0,61,-99.99,,,-99.99,516.200012,,2013-08-17 15:54:00,
2013-08-17 12:00:00,75.0,58.0,-100.00,East,90,3.0,-999.0,54,-99.99,,,-99.99,636.840027,,2013-08-17 16:00:00,
2013-08-17 12:42:00,75.0,58.0,-100.00,East,90,3.0,-999.0,54,-99.99,,,-99.99,636.840027,,2013-08-17 16:42:00,
2013-08-17 12:53:00,75.0,58.0,-100.00,East,90,3.0,-999.0,54,-99.99,,,-99.99,636.840027,,2013-08-17 16:53:00,
2013-08-17 13:00:00,77.0,56.0,-100.00,SE,135,3.0,-999.0,48,-99.99,,,-99.99,762.119995,,2013-08-17 17:00:00,
2013-08-17 13:42:00,77.0,56.0,-100.00,SE,135,3.0,-999.0,48,-99.99,,,-99.99,762.119995,,2013-08-17 17:42:00,
2013-08-17 13:52:00,77.0,56.0,-100.00,SE,135,3.0,-999.0,48,-99.99,,,-99.99,762.119995,,2013-08-17 17:52:00,
2013-08-17 14:00:00,78.0,55.0,-100.00,ESE,112,3.0,-999.0,45,-99.99,,,-99.99,779.520020,,2013-08-17 18:00:00,
2013-08-17 14:42:00,78.0,55.0,-100.00,ESE,112,3.0,-999.0,45,-99.99,,,-99.99,779.520020,,2013-08-17 18:42:00,
2013-08-17 14:52:00,78.0,55.0,-100.00,ESE,112,3.0,-999.0,45,-99.99,,,-99.99,779.520020,,2013-08-17 18:52:00,
2013-08-17 15:00:00,78.0,54.0,-100.00,SE,135,3.0,-999.0,43,-99.99,,,-99.99,715.719971,,2013-08-17 19:00:00,
2013-08-17 15:42:00,78.0,54.0,-100.00,SE,135,3.0,-999.0,43,-99.99,,,-99.99,715.719971,,2013-08-17 19:42:00,
2013-08-17 15:52:00,78.0,54.0,-100.00,SE,135,3.0,-999.0,43,-99.99,,,-99.99,715.719971,,2013-08-17 19:52:00,
2013-08-17 16:00:00,79.0,54.0,-100.00,SE,135,4.0,-999.0,41,-99.99,,,-99.99,711.080017,,2013-08-17 20:00:00,
2013-08-17 16:42:00,79.0,54.0,-100.00,SE,135,4.0,-999.0,41,-99.99,,,-99.99,711.080017,,2013-08-17 20:42:00,
2013-08-17 16:52:00,79.0,54.0,-100.00,SE,135,4.0,-999.0,41,-99.99,,,-99.99,711.080017,,2013-08-17 20:52:00,
2013-08-17 18:00:00,79.0,54.0,-100.00,SE,135,3.0,-999.0,41,-99.99,,,-99.99,481.399994,,2013-08-17 22:00:00,
2013-08-17 18:42:00,79.0,54.0,-100.00,SE,135,3.0,-999.0,41,-99.99,,,-99.99,481.399994,,2013-08-17 22:42:00,
2013-08-17 18:52:00,79.0,54.0,-100.00,SE,135,3.0,-999.0,41,-99.99,,,-99.99,481.399994,,2013-08-17 22:52:00,
2013-08-17 19:00:00,78.0,55.0,-100.00,ESE,112,1.0,-999.0,45,-99.99,,,-99.99,294.640015,,2013-08-17 23:00:00,
2013-08-17 19:42:00,78.0,55.0,-100.00,ESE,112,1.0,-999.0,45,-99.99,,,-99.99,294.640015,,2013-08-17 23:42:00,
2013-08-17 19:52:00,78.0,55.0,-100.00,ESE,112,1.0,-999.0,45,-99.99,,,-99.99,294.640015,,2013-08-17 23:52:00,
2013-08-17 20:00:00,76.0,60.0,-100.00,SE,135,1.0,-999.0,56,-99.99,,,-99.99,146.160004,,2013-08-18 00:00:00,
2013-08-17 20:42:00,76.0,60.0,-100.00,SE,135,1.0,-999.0,56,-99.99,,,-99.99,146.160004,,2013-08-18 00:42:00,
2013-08-17 20:52:00,76.0,60.0,-100.00,SE,135,1.0,-999.0,56,-99.99,,,-99.99,146.160004,,2013-08-18 00:52:00,
2013-08-17 21:00:00,69.0,62.0,-100.00,SSE,157,0.0,-999.0,80,-99.99,,,-99.99,19.719999,,2013-08-18 01:00:00,
2013-08-17 21:42:00,69.0,62.0,-100.00,SSE,157,0.0,-999.0,80,-99.99,,,-99.99,19.719999,,2013-08-18 01:42:00,
2013-08-17 21:52:00,69.0,62.0,-100.00,SSE,157,0.0,-999.0,80,-99.99,,,-99.99,19.719999,,2013-08-18 01:52:00,
2013-08-17 22:00:00,62.0,59.0,-100.00,South,180,1.0,-999.0,91,-99.99,,,-99.99,0.000000,,2013-08-18 02:00:00,
2013-08-17 22:42:00,62.0,59.0,-100.00,South,180,1.0,-999.0,91,-99.99,,,-99.99,0.000000,,2013-08-18 02:42:00,
2013-08-17 22:52:00,62.0,59.0,-100.00,South,180,1.0,-999.0,91,-99.99,,,-99.99,0.000000,,2013-08-18 02:52:00,
2013-08-17 23:00:00,-999.0,-99.9,-100.00,East,90,1.0,-999.0,-999,-99.99,,,-99.99,,,2013-08-18 03:00:00,
2013-08-17 23:43:00,61.0,58.0,-100.00,East,90,1.0,-999.0,89,-99.99,,,-99.99,0.000000,,2013-08-18 03:43:00,
2013-08-17 23:53:00,61.0,58.0,-100.00,East,90,1.0,-999.0,89,-99.99,,,-99.99,0.000000,,2013-08-18 03:53:00,